Tracking 26951 objects as of 4-Feb-2023
HD Live streaming from Space Station
objects crossing your sky now

NOAA 16 DEB

Track NOAA 16 DEB now!
10-day predictions


NORAD ID: 42365
Int'l Code: 2000-055RH
Perigee: 768.9 km
Apogee: 849.0 km
Inclination: 98.9 °
Period: 100.9 minutes
Semi major axis: 7179 km
RCS: Unknown
Launch date: September 21, 2000
Source: United States (US)
Launch site: AIR FORCE WESTERN TEST RANGE (AFWTR)

Note: This is SATELLITE DEBRIS
Your satellite tracking list
Your tracking list is empty




NASA's NSSDC Master Catalog

Two Line Element Set (TLE):
1 42365U 00055RH  23034.80657428  .00005285  00000-0  21543-2 0  9999
2 42365  98.9472 172.1343 0055784 151.7868 208.6353 14.26995331361827
Source of the keplerian elements: AFSPC